User: anonymous   Login
Location: Unspecified
(0.0000°N, 0.0000°E)
Time: 10:48:51
(UTC+00:00)
Language:

Hubble Space Telescope - Orbit

View from above orbital plane
View from above orbital plane
View from above satellite
View from above satellite

Ground track
Ground track

The orbit data is extracted from the following two-line orbital elements,

1 20580U 90037B   18114.42652590 +.00000479 +00000-0 +18383-4 0  9999
2 20580 028.4689 110.4892 0002445 282.9932 232.4773 15.09022973337255
Epoch (UTC): 24 April 2018 10:14:11
Eccentricity: 0.0002445
inclination: 28.4689°
perigee height: 537 km
apogee height: 541 km
right ascension of ascending node: 110.4892°
argument of perigee: 282.9932°
revolutions per day: 15.09022973
mean anomaly at epoch: 232.4773°
orbit number at epoch: 33725

The dashed part of the orbit path shows where the satellite is in the earth's shadow,  

DLR